When you browse on this site, cookies collect data to enhance your experience and personalize the content and advertising you see.
Visit our Privacy Policy to learn more. By continuing to use the site, you agree to this use of cookies and data.
  • In Lithuania
  • List of Countries
  • For 7 days
  • Water Temperature
  • Satellite Maps
  • Weather Map
  • Weather Widgets
  • user-avatar
    Login

    Hourly Weather Yulara

    Today, 26 June, Wednesday

    Time Temperature Precipitation Wind Pressure Humidity
    00:00 +10°C° 0 mm 4 mps 723 mmHg 32%
    01:00 +8°C° 0 mm 4 mps 723 mmHg 34%
    02:00 +8°C° 0 mm 3 mps 723 mmHg 36%
    03:00 +8°C° 0 mm 3 mps 723 mmHg 38%
    04:00 +7°C° 0 mm 3 mps 723 mmHg 38%
    05:00 +7°C° 0 mm 3 mps 723 mmHg 39%
    06:00 +7°C° 0 mm 3 mps 723 mmHg 40%
    07:00 +8°C° 0 mm 3 mps 724 mmHg 36%
    08:00 +10°C° 0 mm 4 mps 724 mmHg 32%
    09:00 +12°C° 0 mm 4 mps 724 mmHg 28%
    10:00 +14°C° 0 mm 4 mps 724 mmHg 25%
    11:00 +17°C° 0 mm 4 mps 723 mmHg 22%
    12:00 +19°C° 0 mm 5 mps 723 mmHg 20%
    13:00 +20°C° 0 mm 4 mps 722 mmHg 19%
    14:00 +21°C° 0 mm 4 mps 722 mmHg 19%
    15:00 +21°C° 0 mm 3 mps 721 mmHg 18%
    16:00 +19°C° 0 mm 3 mps 721 mmHg 21%
    17:00 +17°C° 0 mm 3 mps 721 mmHg 25%
    18:00 +14°C° 0 mm 3 mps 721 mmHg 29%
    19:00 +13°C° 0 mm 3 mps 721 mmHg 31%
    20:00 +12°C° 0 mm 4 mps 721 mmHg 34%
    21:00 +11°C° 0 mm 4 mps 722 mmHg 36%
    22:00 +11°C° 0 mm 4 mps 722 mmHg 37%
    23:00 +10°C° 0 mm 4 mps 722 mmHg 38%

    Tomorrow, 27 June, Thursday

    Time Temperature Precipitation Wind Pressure Humidity
    00:00 +8°C° 0 mm 4 mps 721 mmHg 40%
    01:00 +8°C° 0 mm 3 mps 721 mmHg 41%
    02:00 +7°C° 0 mm 3 mps 721 mmHg 43%
    03:00 +7°C° 0 mm 3 mps 721 mmHg 44%
    04:00 +5°C° 0 mm 3 mps 721 mmHg 45%
    05:00 +5°C° 0 mm 3 mps 721 mmHg 46%
    06:00 +5°C° 0 mm 3 mps 722 mmHg 47%
    07:00 +8°C° 0 mm 3 mps 722 mmHg 43%
    08:00 +9°C° 0 mm 3 mps 722 mmHg 39%
    09:00 +11°C° 0 mm 3 mps 722 mmHg 35%
    10:00 +13°C° 0 mm 3 mps 722 mmHg 31%
    11:00 +17°C° 0 mm 3 mps 722 mmHg 26%
    12:00 +19°C° 0 mm 3 mps 721 mmHg 22%
    13:00 +20°C° 0 mm 2 mps 721 mmHg 20%
    14:00 +21°C° 0 mm 2 mps 720 mmHg 19%
    15:00 +21°C° 0 mm 2 mps 719 mmHg 17%
    16:00 +19°C° 0 mm 1 mps 719 mmHg 22%
    17:00 +16°C° 0 mm 1 mps 719 mmHg 27%
    18:00 +13°C° 0 mm 1 mps 719 mmHg 31%
    19:00 +13°C° 0 mm 2 mps 719 mmHg 30%
    20:00 +13°C° 0 mm 2 mps 720 mmHg 29%
    21:00 +13°C° 0 mm 3 mps 720 mmHg 28%
    22:00 +12°C° 0 mm 3 mps 720 mmHg 29%
    23:00 +11°C° 0 mm 3 mps 720 mmHg 31%

    Day after tomorrow, 28 June, Friday

    Time Temperature Precipitation Wind Pressure Humidity
    00:00 +11°C° 0 mm 3 mps 720 mmHg 33%
    01:00 +10°C° 0 mm 3 mps 720 mmHg 36%
    02:00 +9°C° 0 mm 3 mps 719 mmHg 39%
    03:00 +9°C° 0 mm 2 mps 719 mmHg 42%
    04:00 +8°C° 0 mm 2 mps 719 mmHg 44%
    05:00 +7°C° 0 mm 2 mps 719 mmHg 45%
    06:00 +7°C° 0 mm 2 mps 719 mmHg 47%
    07:00 +9°C° 0 mm 2 mps 720 mmHg 40%
    08:00 +13°C° 0 mm 2 mps 720 mmHg 34%
    09:00 +15°C° 0 mm 2 mps 720 mmHg 28%
    10:00 +17°C° 0 mm 3 mps 720 mmHg 24%
    11:00 +20°C° 0 mm 4 mps 720 mmHg 21%
    12:00 +22°C° 0 mm 5 mps 720 mmHg 18%
    13:00 +23°C° 0 mm 5 mps 720 mmHg 17%
    14:00 +25°C° 0 mm 5 mps 719 mmHg 17%
    15:00 +26°C° 0 mm 5 mps 719 mmHg 16%
    16:00 +23°C° 0 mm 5 mps 719 mmHg 19%
    17:00 +21°C° 0 mm 4 mps 719 mmHg 22%
    18:00 +18°C° 0 mm 3 mps 719 mmHg 25%
    19:00 +18°C° 0 mm 3 mps 719 mmHg 26%
    20:00 +17°C° 0 mm 3 mps 720 mmHg 27%
    21:00 +16°C° 0 mm 3 mps 720 mmHg 29%
    22:00 +14°C° 0 mm 5 mps 721 mmHg 44%
    23:00 +12°C° 0 mm 7 mps 721 mmHg 59%

    29 June, Saturday

    Time Temperature Precipitation Wind Pressure Humidity
    00:00 +10°C° 0 mm 9 mps 721 mmHg 75%
    01:00 +10°C° 0 mm 8 mps 722 mmHg 76%
    02:00 +9°C° 0 mm 7 mps 722 mmHg 78%
    03:00 +8°C° 0 mm 7 mps 722 mmHg 80%
    04:00 +7°C° 0 mm 5 mps 722 mmHg 80%
    05:00 +7°C° 0 mm 4 mps 723 mmHg 79%
    06:00 +7°C° 0 mm 3 mps 723 mmHg 79%
    07:00 +7°C° 0 mm 4 mps 723 mmHg 70%
    08:00 +8°C° 0 mm 4 mps 723 mmHg 60%
    09:00 +9°C° 0 mm 5 mps 724 mmHg 50%
    10:00 +12°C° 0 mm 5 mps 724 mmHg 40%
    11:00 +14°C° 0 mm 6 mps 724 mmHg 29%
    12:00 +16°C° 0 mm 6 mps 724 mmHg 19%
    13:00 +17°C° 0 mm 6 mps 723 mmHg 17%
    14:00 +17°C° 0 mm 6 mps 723 mmHg 15%
    15:00 +19°C° 0 mm 6 mps 722 mmHg 13%
    16:00 +16°C° 0 mm 6 mps 722 mmHg 16%
    17:00 +14°C° 0 mm 5 mps 723 mmHg 18%
    18:00 +12°C° 0 mm 5 mps 723 mmHg 21%
    19:00 +10°C° 0 mm 5 mps 723 mmHg 23%
    20:00 +9°C° 0 mm 5 mps 724 mmHg 26%
    21:00 +7°C° 0 mm 4 mps 724 mmHg 29%
    22:00 +7°C° 0 mm 4 mps 724 mmHg 31%
    23:00 +6°C° 0 mm 4 mps 724 mmHg 32%

    30 June, Sunday

    Time Temperature Precipitation Wind Pressure Humidity
    00:00 +5°C° 0 mm 4 mps 724 mmHg 34%
    01:00 +5°C° 0 mm 4 mps 723 mmHg 33%
    02:00 +5°C° 0 mm 4 mps 723 mmHg 36%
    03:00 +4°C° 0 mm 4 mps 723 mmHg 39%
    04:00 +4°C° 0 mm 3 mps 723 mmHg 41%
    05:00 +4°C° 0 mm 3 mps 723 mmHg 43%
    06:00 +3°C° 0 mm 3 mps 724 mmHg 45%
    07:00 +5°C° 0 mm 4 mps 724 mmHg 41%
    08:00 +7°C° 0 mm 4 mps 724 mmHg 37%
    09:00 +8°C° 0 mm 5 mps 724 mmHg 34%
    10:00 +12°C° 0 mm 5 mps 724 mmHg 30%
    11:00 +14°C° 0 mm 4 mps 723 mmHg 27%
    12:00 +17°C° 0 mm 4 mps 723 mmHg 23%
    13:00 +18°C° 0 mm 4 mps 722 mmHg 23%
    14:00 +19°C° 0 mm 4 mps 721 mmHg 22%
    15:00 +20°C° 0 mm 3 mps 720 mmHg 21%
    16:00 +18°C° 0 mm 3 mps 720 mmHg 25%
    17:00 +16°C° 0 mm 3 mps 720 mmHg 29%
    18:00 +13°C° 0 mm 2 mps 720 mmHg 34%
    19:00 +12°C° 0 mm 3 mps 720 mmHg 35%
    20:00 +11°C° 0 mm 3 mps 720 mmHg 37%
    21:00 +10°C° 0 mm 3 mps 721 mmHg 39%
    22:00 +10°C° 0 mm 3 mps 721 mmHg 41%
    23:00 +9°C° 0 mm 3 mps 720 mmHg 43%

    1 July, Monday

    Time Temperature Precipitation Wind Pressure Humidity
    00:00 +8°C° 0 mm 3 mps 720 mmHg 45%
    01:00 +8°C° 0 mm 3 mps 720 mmHg 46%
    02:00 +7°C° 0 mm 3 mps 720 mmHg 48%
    03:00 +7°C° 0 mm 3 mps 720 mmHg 50%
    04:00 +7°C° 0 mm 3 mps 720 mmHg 52%
    05:00 +5°C° 0 mm 3 mps 720 mmHg 55%
    06:00 +5°C° 0 mm 3 mps 720 mmHg 57%
    07:00 +8°C° 0 mm 2 mps 720 mmHg 52%
    08:00 +9°C° 0 mm 2 mps 721 mmHg 47%
    09:00 +12°C° 0 mm 1 mps 721 mmHg 42%
    10:00 +15°C° 0 mm 2 mps 721 mmHg 37%
    11:00 +17°C° 0 mm 2 mps 720 mmHg 32%
    12:00 +20°C° 0 mm 3 mps 720 mmHg 26%
    13:00 +21°C° 0 mm 3 mps 719 mmHg 24%
    14:00 +22°C° 0 mm 3 mps 719 mmHg 21%
    15:00 +23°C° 0 mm 4 mps 718 mmHg 19%
    16:00 +19°C° 0 mm 3 mps 718 mmHg 26%
    17:00 +16°C° 0 mm 2 mps 718 mmHg 32%
    18:00 +13°C° 0 mm 1 mps 718 mmHg 39%
    19:00 +13°C° 0 mm 1 mps 718 mmHg 44%
    20:00 +12°C° 0 mm 1 mps 718 mmHg 49%
    21:00 +12°C° 0 mm 1 mps 719 mmHg 53%
    22:00 +12°C° 0 mm 2 mps 719 mmHg 46%
    23:00 +11°C° 0 mm 3 mps 719 mmHg 39%
    Show more